[[{"header":{"parameterUnit":"m.s-1","parameterCategory":1,"la1":30.2991,"la2":30.254,"lo1":-89.0895,"lo2":-89.0444,"dy":0.0017,"dx":0.0017,"nx":28,"ny":28,"refTime":"2026-02-14T09:00:00:Z","depth":0,"parameterNumber":2,"parameterNumberName":"U-component_of_WINDS"},"data":[0,0,0,0,0,0,0,0,0,0,0,0,0,0,0,0,0,0,0,0,0,0,0,0,0,0,0,0,0,0,0,0,0,0,0,0,0,0,0,0,0,0,0,0,0,0,0,0,0,0,0,0,0,0,0,0,0,0,4.0235,4.0236,0,4.0347,4.0349,4.035,4.0346,4.0344,4.0343,4.0341,4.0458,4.0463,4.0467,0,0,0,0,0,0,0,0,0,0,0,0,0,4.002,4.0024,4.0235,4.0236,4.0237,4.0347,4.0349,4.035,4.0346,4.0344,4.0342,4.0341,4.0457,4.0462,4.0468,0,0,0,0,0,0,0,0,0,0,0,0,0,4.0121,4.0025,4.0234,4.0249,4.0251,4.0347,4.0349,4.0351,4.0347,4.0344,4.0342,4.034,4.0455,4.0462,4.0468,4.0558,0,0,4.0489,4.0492,0,0,0,0,0,0,0,0,4.0115,4.0129,4.0245,4.0248,4.0251,4.033,4.0316,4.042,4.0347,4.031,4.0341,4.0339,4.0418,4.0427,4.0454,4.0563,4.0568,4.049,4.0494,4.0497,4.0499,0,0,0,0,0,0,0,4.0108,4.0124,4.0279,4.0247,4.025,4.0251,4.0262,4.0336,4.0376,4.0313,4.0313,4.0327,4.0419,4.0447,4.0456,4.057,4.049,4.0496,4.05,4.0503,4.0763,4.0765,0,0,0,0,0,0,4.0098,4.0118,4.0276,4.0283,4.0176,4.0256,4.027,4.0307,4.0375,4.0383,4.0329,4.0326,4.0436,4.0448,4.046,4.0572,4.0497,4.0503,4.0507,4.076,4.0763,4.0766,0,0,0,0,0,0,4.0093,4.0112,4.0271,4.02,4.0221,4.0263,4.0305,4.031,4.0339,4.0386,4.0394,4.035,4.0435,4.0451,4.0534,4.0576,4.0506,4.0513,4.0757,4.0761,4.0765,4.0794,0,0,0,0,0,0,4.0087,4.011,4.0143,4.0201,4.0225,4.0342,4.0307,4.0314,4.035,4.0348,4.0408,4.0416,4.0434,4.0524,4.0541,4.0584,4.0518,4.0753,4.0758,4.0763,4.0789,4.0799,4.0806,0,0,0,0,0,4.0079,4.0146,4.0145,4.0164,4.0267,4.0344,4.0357,4.0377,4.0354,4.0388,4.042,4.0414,4.0569,4.0533,4.0552,4.0597,4.075,4.0757,4.0763,4.0786,4.0797,4.0806,0,0,0,0,0,0,4.0092,4.0154,4.0153,4.0241,4.0287,4.0343,4.0387,4.0387,4.0441,4.0437,4.0459,4.0473,4.0557,4.0586,4.0545,4.069,4.0657,4.0667,4.0668,4.0679,4.0687,4.0678,4.0524,0,0,0,0,0,4.0105,4.0161,4.0213,4.0286,4.0309,4.0344,4.0379,4.039,4.0439,4.0459,4.0496,4.0544,4.0604,4.0643,4.07,4.0794,4.0809,4.0835,4.0844,4.085,4.0859,4.0914,4.0927,4.0787,4.0787,4.0787,0,0,4.0132,4.0173,4.0207,4.0289,4.0327,4.0387,4.0361,4.0424,4.0469,4.0468,4.055,4.0579,4.0635,4.0725,4.0767,4.0751,4.0901,4.0858,4.0863,4.0869,4.0922,4.0935,4.0947,4.0791,4.079,4.079,0,0,4.0212,4.0248,4.0314,4.0353,4.041,4.0433,4.0449,4.0506,4.0526,4.0608,4.061,4.0665,4.0766,4.0807,4.0841,4.0942,4.094,4.096,4.1004,4.1057,4.1069,4.1078,4.1116,4.1129,4.0969,4.0969,4.0969,0,4.0239,4.0328,4.0348,4.0413,4.045,4.0453,4.0521,4.0558,4.0631,4.0657,4.0639,4.077,4.0807,4.0908,4.0933,4.096,4.0981,4.0953,4.1065,4.1075,4.1085,4.1121,4.1135,4.0971,4.0971,4.0971,4.097,0,4.0359,4.0421,4.0468,4.0539,4.0582,4.0648,4.068,4.0721,4.0729,4.0756,4.0841,4.0887,4.0956,4.098,4.0989,4.1084,4.1073,4.106,4.1028,4.11,4.1135,4.1149,4.0974,4.0973,4.0973,4.0972,0,0,4.0447,4.0532,4.0549,4.0583,4.0648,4.0697,4.0765,4.0832,4.0868,4.0919,4.0978,4.1066,4.1056,4.1095,4.1108,4.1155,4.1235,4.1137,4.1139,4.1155,4.1345,4.1355,4.137,4.1234,4.1237,4.1239,4.1341,0,4.0536,4.0655,4.0677,4.0781,4.0841,4.0847,4.0906,4.0954,4.0981,4.1037,4.1067,4.113,4.111,4.1134,4.1181,4.1215,4.1273,4.1208,4.1291,4.1293,4.1276,4.1388,4.1398,4.1491,4.1354,4.1357,4.1358,0,4.0653,4.0709,4.082,4.0881,4.0906,4.0959,4.1024,4.1077,4.1132,4.1149,4.1195,4.1204,4.1277,4.1242,4.1344,4.13,4.1335,4.1358,4.1362,4.137,4.133,4.1401,4.1521,4.1536,4.1379,4.1378,4.1376,0,4.0709,4.0812,4.0892,4.0921,4.0993,4.1031,4.1062,4.1116,4.1156,4.1213,4.124,4.1305,4.1341,4.1393,4.1421,4.1392,4.1522,4.1489,4.154,4.1539,4.1566,4.1564,4.1695,4.1588,4.1588,4.1588,4.1587,0,4.0805,4.0873,4.0918,4.0968,4.1045,4.1071,4.1148,4.1179,4.1227,4.1285,4.1294,4.1348,4.1381,4.144,4.1463,4.1546,4.1561,4.1579,4.1584,4.1578,4.1576,4.1601,4.1596,4.1592,4.1591,4.159,4.1589,0,4.0879,4.0912,4.1001,4.1063,4.108,4.1135,4.1189,4.1238,4.1267,4.134,4.1358,4.1403,4.1474,4.1507,4.1595,4.161,4.1705,4.1705,4.1686,4.1688,4.1738,4.1733,4.189,4.1913,4.179,4.1791,4.1792,0,4.0938,4.0991,4.106,4.1099,4.1132,4.1195,4.1237,4.1265,4.1308,4.1378,4.142,4.1491,4.1549,4.1663,4.1704,4.1772,4.1775,4.1826,4.1785,4.1779,4.1778,4.1774,4.1781,4.1833,4.1834,4.1835,4.1836,0,4.1041,4.1055,4.1115,4.1181,4.1231,4.1284,4.1337,4.1369,4.1406,4.1455,4.1528,4.1573,4.1664,4.1735,4.1807,4.1841,4.1846,4.1848,4.1864,4.1859,4.1846,4.1855,4.1707,4.1844,4.1843,4.1843,4.1842,4.1842,4.111,4.1159,4.1216,4.1282,4.1325,4.1375,4.1426,4.1462,4.1523,4.1598,4.1612,4.169,4.1748,4.1845,4.1882,4.1945,4.1934,4.1956,4.1962,4.1967,4.197,4.1836,4.1958,4.1958,4.1958,4.1958,4.1958,0,4.1214,4.1252,4.1313,4.1387,4.1441,4.1441,4.15,4.1545,4.1614,4.1667,4.1725,4.1811,4.1881,4.1929,4.2001,4.2043,4.2047,4.2061,4.2058,4.2067,4.1976,4.1956,4.2057,4.2057,4.2056,4.2056,4.2056,4.2056,4.1275,4.1357,4.1379,4.1485,4.1522,4.1599,4.1633,4.168,4.1723,4.1818,4.1877,4.1908,4.1961,4.2037,4.2103,4.2116,4.2142,4.2157,4.2169,4.2083,4.2073,4.2063,4.2044,4.2162,4.2162,4.2255,4.2256,4.2257]},{"header":{"parameterUnit":"m.s-1","parameterCategory":1,"la1":30.2991,"la2":30.254,"lo1":-89.0895,"lo2":-89.0444,"dy":0.0017,"dx":0.0017,"nx":28,"ny":28,"refTime":"2026-02-14T09:00:00:Z","depth":0,"parameterNumber":3,"parameterNumberName":"V-component_of_WINDS"},"data":[0,0,0,0,0,0,0,0,0,0,0,0,0,0,0,0,0,0,0,0,0,0,0,0,0,0,0,0,0,0,0,0,0,0,0,0,0,0,0,0,0,0,0,0,0,0,0,0,0,0,0,0,0,0,0,0,0,0,-5.6663,-5.6664,0,-5.6772,-5.6773,-5.6775,-5.678,-5.6778,-5.6777,-5.6776,-5.6883,-5.6887,-5.6891,0,0,0,0,0,0,0,0,0,0,0,0,0,-5.6457,-5.6461,-5.6663,-5.6665,-5.6666,-5.6772,-5.6773,-5.6775,-5.678,-5.6778,-5.6777,-5.6775,-5.6882,-5.6886,-5.6891,0,0,0,0,0,0,0,0,0,0,0,0,0,-5.6554,-5.6462,-5.6663,-5.6681,-5.6684,-5.6772,-5.6773,-5.6775,-5.678,-5.6778,-5.6776,-5.6775,-5.688,-5.6886,-5.6892,-5.6967,0,0,-5.691,-5.6913,0,0,0,0,0,0,0,0,-5.6549,-5.6562,-5.6677,-5.668,-5.6683,-5.676,-5.674,-5.6839,-5.6781,-5.6743,-5.6776,-5.6774,-5.6843,-5.6852,-5.6877,-5.6972,-5.6977,-5.6911,-5.6914,-5.6917,-5.6919,0,0,0,0,0,0,0,-5.6542,-5.6557,-5.6706,-5.6679,-5.6683,-5.6683,-5.6695,-5.6759,-5.6803,-5.6747,-5.6747,-5.676,-5.6845,-5.6871,-5.6879,-5.6978,-5.6911,-5.6916,-5.692,-5.6922,-5.7143,-5.7146,0,0,0,0,0,0,-5.6532,-5.6552,-5.6703,-5.6709,-5.661,-5.6689,-5.6702,-5.6738,-5.6802,-5.681,-5.6762,-5.676,-5.6862,-5.6872,-5.6883,-5.6977,-5.6917,-5.6923,-5.6926,-5.7141,-5.7144,-5.7146,0,0,0,0,0,0,-5.6528,-5.6546,-5.6698,-5.6631,-5.665,-5.6694,-5.6734,-5.6741,-5.6767,-5.6814,-5.6821,-5.6781,-5.686,-5.6875,-5.6947,-5.6981,-5.6925,-5.6931,-5.7138,-5.7142,-5.7145,-5.7165,0,0,0,0,0,0,-5.6522,-5.6544,-5.6574,-5.6632,-5.6654,-5.6761,-5.6736,-5.6744,-5.6778,-5.6777,-5.6833,-5.6841,-5.686,-5.6938,-5.6953,-5.6988,-5.6936,-5.7136,-5.714,-5.7144,-5.7161,-5.7168,-5.7174,0,0,0,0,0,-5.6515,-5.6573,-5.6575,-5.6593,-5.6692,-5.6763,-5.6776,-5.6798,-5.6781,-5.6811,-5.6841,-5.6839,-5.6975,-5.6945,-5.6962,-5.7,-5.7134,-5.7139,-5.7144,-5.7158,-5.7167,-5.7174,0,0,0,0,0,0,-5.6516,-5.6581,-5.6584,-5.6663,-5.6708,-5.6764,-5.6802,-5.6806,-5.6855,-5.6852,-5.6876,-5.6889,-5.6961,-5.6988,-5.6954,-5.7077,-5.7052,-5.7061,-5.7057,-5.7066,-5.7072,-5.7064,-5.6941,0,0,0,0,0,-5.6526,-5.6579,-5.6633,-5.6698,-5.672,-5.6758,-5.6789,-5.6803,-5.685,-5.6868,-5.6903,-5.6948,-5.7001,-5.7035,-5.7086,-5.7165,-5.7178,-5.72,-5.7206,-5.7211,-5.7218,-5.7264,-5.7275,-5.7163,-5.7163,-5.7163,0,0,-5.6546,-5.6588,-5.662,-5.6699,-5.6735,-5.679,-5.6773,-5.6831,-5.6871,-5.6876,-5.6948,-5.6975,-5.7027,-5.7104,-5.7139,-5.7128,-5.7252,-5.7218,-5.7222,-5.7226,-5.727,-5.7281,-5.729,-5.7166,-5.7166,-5.7165,0,0,-5.661,-5.6648,-5.6707,-5.6745,-5.6801,-5.6825,-5.684,-5.6896,-5.6915,-5.6988,-5.6994,-5.7042,-5.7132,-5.7169,-5.7199,-5.7281,-5.7282,-5.7297,-5.7331,-5.7376,-5.7384,-5.7392,-5.7423,-5.7433,-5.7304,-5.7304,-5.7304,0,-5.6628,-5.6711,-5.6736,-5.6795,-5.683,-5.684,-5.69,-5.6935,-5.7004,-5.7027,-5.7014,-5.713,-5.7164,-5.7251,-5.7271,-5.7295,-5.7313,-5.729,-5.7381,-5.739,-5.7397,-5.7426,-5.7438,-5.7306,-5.7306,-5.7305,-5.7305,0,-5.6731,-5.6789,-5.683,-5.6899,-5.6939,-5.6998,-5.7031,-5.7068,-5.7079,-5.7105,-5.718,-5.7223,-5.7284,-5.7305,-5.7315,-5.7394,-5.7385,-5.7377,-5.7352,-5.7409,-5.7437,-5.7448,-5.7308,-5.7307,-5.7307,-5.7307,0,0,-5.6797,-5.6882,-5.6897,-5.693,-5.6993,-5.7038,-5.7098,-5.716,-5.7192,-5.724,-5.7291,-5.7368,-5.7362,-5.7396,-5.7411,-5.745,-5.7514,-5.7436,-5.7438,-5.745,-5.7604,-5.7611,-5.7623,-5.7515,-5.7517,-5.7519,-5.76,0,-5.687,-5.6979,-5.7004,-5.7097,-5.7151,-5.7162,-5.7215,-5.7259,-5.7286,-5.7335,-5.7364,-5.742,-5.7406,-5.7427,-5.7466,-5.7498,-5.7545,-5.7492,-5.7562,-5.7564,-5.7549,-5.7638,-5.7644,-5.7719,-5.7611,-5.7613,-5.7614,0,-5.6968,-5.7022,-5.7121,-5.718,-5.7204,-5.725,-5.731,-5.7358,-5.7409,-5.7425,-5.7466,-5.7477,-5.754,-5.7513,-5.76,-5.7563,-5.7593,-5.7613,-5.7617,-5.7624,-5.7593,-5.7648,-5.7743,-5.7755,-5.7632,-5.763,-5.7629,0,-5.7009,-5.7104,-5.7177,-5.7204,-5.7275,-5.7308,-5.7338,-5.7388,-5.7424,-5.7476,-5.75,-5.7558,-5.7589,-5.7633,-5.766,-5.7638,-5.7745,-5.772,-5.7761,-5.776,-5.7782,-5.7781,-5.7885,-5.7802,-5.7801,-5.7801,-5.7801,0,-5.7087,-5.7147,-5.7196,-5.724,-5.7309,-5.7338,-5.7404,-5.7434,-5.7479,-5.7529,-5.7542,-5.7588,-5.7621,-5.7672,-5.7693,-5.7762,-5.7776,-5.7791,-5.7796,-5.7791,-5.7789,-5.781,-5.7806,-5.7804,-5.7804,-5.7803,-5.7802,0,-5.7143,-5.7178,-5.7258,-5.7319,-5.7336,-5.7384,-5.7436,-5.7479,-5.7507,-5.7571,-5.7588,-5.7631,-5.7692,-5.7723,-5.7799,-5.7813,-5.7892,-5.7893,-5.7875,-5.7877,-5.7916,-5.7913,-5.8038,-5.8057,-5.7961,-5.7962,-5.7962,0,-5.719,-5.7238,-5.7305,-5.7341,-5.7373,-5.743,-5.7468,-5.7498,-5.7537,-5.7601,-5.7637,-5.7699,-5.7751,-5.7848,-5.7885,-5.7943,-5.7947,-5.7987,-5.7955,-5.7949,-5.7948,-5.7945,-5.795,-5.7992,-5.7993,-5.7994,-5.7994,0,-5.7272,-5.7288,-5.7343,-5.7405,-5.7451,-5.75,-5.7549,-5.7577,-5.7616,-5.7659,-5.7723,-5.7763,-5.7842,-5.7904,-5.7966,-5.7996,-5.8002,-5.8004,-5.8017,-5.8012,-5.8,-5.8007,-5.7891,-5.8001,-5.8,-5.8,-5.7999,-5.7999,-5.7326,-5.7369,-5.7424,-5.7486,-5.7526,-5.7573,-5.7617,-5.7652,-5.7707,-5.7775,-5.7789,-5.7857,-5.7909,-5.7993,-5.8025,-5.8078,-5.807,-5.8088,-5.8092,-5.8097,-5.8099,-5.7991,-5.809,-5.8089,-5.8089,-5.8089,-5.8089,0,-5.7408,-5.7445,-5.7502,-5.7571,-5.762,-5.7624,-5.7679,-5.7719,-5.7779,-5.7828,-5.7879,-5.7954,-5.8014,-5.8058,-5.812,-5.8154,-5.8158,-5.8169,-5.8167,-5.8174,-5.8103,-5.8086,-5.8165,-5.8165,-5.8165,-5.8165,-5.8165,-5.8165,-5.7457,-5.7531,-5.7554,-5.7649,-5.7685,-5.7753,-5.7785,-5.7828,-5.7867,-5.795,-5.8002,-5.803,-5.8077,-5.8143,-5.8199,-5.821,-5.8232,-5.8243,-5.8254,-5.8187,-5.8179,-5.8171,-5.8156,-5.8248,-5.8248,-5.8322,-5.8322,-5.8323]}]]